Data No.,UTC Date,UTC Time,Latitude,Longitude,Course(deg),Sal(psu)
21,2012/8/27,2:18:00,34-26.8500N,137-03.8700E,186,33.3956
22,2012/8/27,2:19:00,34-26.6600N,137-03.8400E,187,33.3294
23,2012/8/27,2:20:00,34-26.4700N,137-03.8200E,185,33.333
24,2012/8/27,2:21:00,34-26.2900N,137-03.8000E,185,33.347
25,2012/8/27,2:22:00,34-26.0900N,137-03.7800E,184,33.3533
26,2012/8/27,2:23:00,34-25.9000N,137-03.7600E,185,33.353
27,2012/8/27,2:24:00,34-25.6900N,137-03.7400E,184,33.3034
28,2012/8/27,2:25:00,34-25.5200N,137-03.7200E,185,33.2639
29,2012/8/27,2:26:00,34-25.3400N,137-03.7000E,185,33.1992
30,2012/8/27,2:27:00,34-25.1600N,137-03.6800E,185,33.1755
31,2012/8/27,2:28:00,34-24.9700N,137-03.6600E,185,33.1895
32,2012/8/27,2:29:00,34-24.7900N,137-03.6400E,184,33.2291
33,2012/8/27,2:30:00,34-24.6100N,137-03.6200E,184,33.2549
34,2012/8/27,2:31:00,34-24.4100N,137-03.6000E,185,33.2445
35,2012/8/27,2:32:00,34-24.2200N,137-03.5800E,185,33.2655
36,2012/8/27,2:33:00,34-24.0000N,137-03.5500E,184,33.2994
37,2012/8/27,2:34:00,34-23.8300N,137-03.5400E,180,33.3473
38,2012/8/27,2:35:00,34-23.6300N,137-03.5400E,180,33.478
39,2012/8/27,2:36:00,34-23.4400N,137-03.5400E,180,33.493
40,2012/8/27,2:37:00,34-23.2400N,137-03.5400E,180,33.4955
41,2012/8/27,2:38:00,34-23.0400N,137-03.5400E,180,33.4998
42,2012/8/27,2:39:00,34-22.8500N,137-03.5400E,179,33.498
43,2012/8/27,2:40:00,34-22.6600N,137-03.5500E,177,33.4987
44,2012/8/27,2:41:00,34-22.4700N,137-03.5600E,177,33.506
45,2012/8/27,2:42:00,34-22.2900N,137-03.5700E,178,---
46,2012/8/27,2:43:00,34-22.0900N,137-03.5800E,177,33.5007
47,2012/8/27,2:44:00,34-21.9000N,137-03.5800E,178,33.4909
48,2012/8/27,2:45:00,34-21.7200N,137-03.5900E,178,33.4895
49,2012/8/27,2:46:00,34-21.5300N,137-03.6000E,178,33.4907
50,2012/8/27,2:47:00,34-21.3400N,137-03.6000E,178,33.4964
51,2012/8/27,2:48:00,34-21.1300N,137-03.6100E,178,33.5056
52,2012/8/27,2:49:00,34-20.9500N,137-03.6200E,178,33.5193
53,2012/8/27,2:50:00,34-20.7600N,137-03.6300E,178,33.5237
54,2012/8/27,2:51:00,34-20.5700N,137-03.6300E,178,33.5236
55,2012/8/27,2:52:00,34-20.3800N,137-03.6400E,177,33.5331
56,2012/8/27,2:53:00,34-20.1900N,137-03.6500E,177,33.5484
57,2012/8/27,2:54:00,34-20.0000N,137-03.6700E,176,33.5634
58,2012/8/27,2:55:00,34-19.8100N,137-03.6700E,179,33.5895
59,2012/8/27,2:56:00,34-19.6200N,137-03.6700E,181,33.6139
60,2012/8/27,2:57:00,34-19.4100N,137-03.6600E,182,33.6047
61,2012/8/27,2:58:00,34-19.2200N,137-03.6500E,182,33.5899
62,2012/8/27,2:59:00,34-19.0300N,137-03.6400E,182,33.5805
63,2012/8/27,3:00:00,34-18.8300N,137-03.6300E,182,33.5706
64,2012/8/27,3:01:00,34-18.6500N,137-03.6200E,181,33.555
65,2012/8/27,3:02:00,34-18.4500N,137-03.6200E,179,33.5544
66,2012/8/27,3:03:00,34-18.2600N,137-03.6300E,179,33.5552
67,2012/8/27,3:04:00,34-18.0800N,137-03.6300E,178,---
68,2012/8/27,3:05:00,34-17.8900N,137-03.6300E,179,33.5429
69,2012/8/27,3:06:00,34-17.7200N,137-03.6300E,179,33.5449
70,2012/8/27,3:07:00,34-17.5400N,137-03.6300E,180,33.5416
71,2012/8/27,3:08:00,34-17.3600N,137-03.6300E,180,33.5158
72,2012/8/27,3:09:00,34-17.1700N,137-03.6300E,180,33.5371
73,2012/8/27,3:10:00,34-16.9900N,137-03.6200E,181,33.5369
74,2012/8/27,3:11:00,34-16.8000N,137-03.6200E,179,33.5352
75,2012/8/27,3:12:00,34-16.6100N,137-03.6200E,180,33.5327
76,2012/8/27,3:13:00,34-16.4300N,137-03.6200E,180,33.4989
77,2012/8/27,3:14:00,34-16.2500N,137-03.6200E,179,33.5275
78,2012/8/27,3:15:00,34-16.0600N,137-03.6300E,179,33.5256
79,2012/8/27,3:16:00,34-15.8700N,137-03.6300E,180,33.5302
80,2012/8/27,3:17:00,34-15.6900N,137-03.6200E,181,33.5304
81,2012/8/27,3:18:00,34-15.5000N,137-03.6200E,180,33.5297
82,2012/8/27,3:19:00,34-15.3200N,137-03.6200E,178,33.5303
83,2012/8/27,3:20:00,34-15.1200N,137-03.6300E,179,33.532
84,2012/8/27,3:21:00,34-14.9300N,137-03.6300E,180,33.5316
85,2012/8/27,3:22:00,34-14.7500N,137-03.6300E,180,33.4949
86,2012/8/27,3:23:00,34-14.5500N,137-03.6200E,180,33.5326
87,2012/8/27,3:24:00,34-14.3600N,137-03.6300E,179,33.5362
88,2012/8/27,3:25:00,34-14.1600N,137-03.6300E,179,33.5375
89,2012/8/27,3:26:00,34-13.9600N,137-03.6300E,180,33.5379
90,2012/8/27,3:27:00,34-13.7600N,137-03.6300E,181,33.5415
91,2012/8/27,3:28:00,34-13.5700N,137-03.6200E,180,33.5422
92,2012/8/27,3:29:00,34-13.3700N,137-03.6200E,179,33.5438
93,2012/8/27,3:30:00,34-13.1800N,137-03.6300E,178,33.5449
94,2012/8/27,3:31:00,34-12.9900N,137-03.6400E,178,33.5154
95,2012/8/27,3:32:00,34-12.8000N,137-03.6400E,179,33.5501
96,2012/8/27,3:33:00,34-12.6300N,137-03.6400E,179,33.5543
97,2012/8/27,3:34:00,34-12.4400N,137-03.6400E,180,33.5558
98,2012/8/27,3:35:00,34-12.2600N,137-03.6400E,180,33.5578
99,2012/8/27,3:36:00,34-12.0700N,137-03.6400E,180,33.5596
100,2012/8/27,3:37:00,34-11.8800N,137-03.6300E,180,33.5614
101,2012/8/27,3:38:00,34-11.6900N,137-03.6300E,180,33.5619
102,2012/8/27,3:39:00,34-11.4900N,137-03.6300E,179,33.562
103,2012/8/27,3:40:00,34-11.3000N,137-03.6400E,178,33.5619
104,2012/8/27,3:41:00,34-11.1100N,137-03.6400E,179,33.5588
105,2012/8/27,3:42:00,34-10.9200N,137-03.6400E,179,33.5596
106,2012/8/27,3:43:00,34-10.7100N,137-03.6400E,180,33.561
107,2012/8/27,3:44:00,34-10.5200N,137-03.6400E,179,33.5618
108,2012/8/27,3:45:00,34-10.3300N,137-03.6400E,180,33.5644
109,2012/8/27,3:46:00,34-10.1400N,137-03.6400E,179,33.5646
110,2012/8/27,3:47:00,34-09.9500N,137-03.6400E,179,33.569
111,2012/8/27,3:48:00,34-09.7600N,137-03.6500E,179,33.5614
112,2012/8/27,3:49:00,34-09.5600N,137-03.6500E,179,33.5713
113,2012/8/27,3:50:00,34-09.3700N,137-03.6500E,180,33.5716
114,2012/8/27,3:51:00,34-09.1700N,137-03.6500E,179,33.5721
115,2012/8/27,3:52:00,34-08.9800N,137-03.6500E,179,33.5728
116,2012/8/27,3:53:00,34-08.7900N,137-03.6500E,178,33.5741
117,2012/8/27,3:54:00,34-08.6000N,137-03.6600E,179,33.5751
118,2012/8/27,3:55:00,34-08.4000N,137-03.6600E,179,33.575
119,2012/8/27,3:56:00,34-08.2100N,137-03.6600E,179,33.5426
120,2012/8/27,3:57:00,34-08.0200N,137-03.6600E,180,33.5678
121,2012/8/27,3:58:00,34-07.8300N,137-03.6600E,180,33.5527
122,2012/8/27,3:59:00,34-07.6300N,137-03.6600E,180,33.5366
123,2012/8/27,4:00:00,34-07.4400N,137-03.6600E,179,33.5248
124,2012/8/27,4:01:00,34-07.2600N,137-03.6700E,179,33.5159
125,2012/8/27,4:02:00,34-07.0800N,137-03.6700E,179,33.5084
126,2012/8/27,4:03:00,34-06.8900N,137-03.6700E,179,33.5028
127,2012/8/27,4:04:00,34-06.7100N,137-03.6700E,179,33.4981
128,2012/8/27,4:05:00,34-06.5300N,137-03.6800E,178,33.4974
129,2012/8/27,4:06:00,34-06.3400N,137-03.6800E,179,33.4989
130,2012/8/27,4:07:00,34-06.1500N,137-03.6800E,179,33.5024
131,2012/8/27,4:08:00,34-05.9600N,137-03.6800E,181,33.489
132,2012/8/27,4:09:00,34-05.7800N,137-03.6800E,180,33.5044
133,2012/8/27,4:10:00,34-05.6000N,137-03.6800E,180,33.5095
134,2012/8/27,4:11:00,34-05.4100N,137-03.6800E,180,33.5151
135,2012/8/27,4:12:00,34-05.2300N,137-03.6800E,179,33.5144
136,2012/8/27,4:13:00,34-05.0500N,137-03.6800E,179,33.472
137,2012/8/27,4:14:00,34-04.8600N,137-03.6800E,179,33.5156
138,2012/8/27,4:15:00,34-04.6800N,137-03.6800E,180,33.5147
139,2012/8/27,4:16:00,34-04.5000N,137-03.6800E,180,33.5187
140,2012/8/27,4:17:00,34-04.3200N,137-03.6800E,179,33.5224
141,2012/8/27,4:18:00,34-04.1600N,137-03.6800E,178,33.5289
142,2012/8/27,4:19:00,34-03.9800N,137-03.6800E,180,33.5126
143,2012/8/27,4:20:00,34-03.8100N,137-03.6800E,181,33.4869
144,2012/8/27,4:21:00,34-03.6200N,137-03.6700E,181,33.4691
145,2012/8/27,4:22:00,34-03.4400N,137-03.6700E,181,33.4574
146,2012/8/27,4:23:00,34-03.2700N,137-03.6600E,181,33.4464
147,2012/8/27,4:24:00,34-03.0800N,137-03.6600E,181,33.4453
148,2012/8/27,4:25:00,34-02.8900N,137-03.6500E,181,33.4532
149,2012/8/27,4:26:00,34-02.7100N,137-03.6400E,181,33.4681
150,2012/8/27,4:27:00,34-02.5200N,137-03.6400E,181,33.4741
151,2012/8/27,4:28:00,34-02.3400N,137-03.6400E,179,33.4936
152,2012/8/27,4:29:00,34-02.1600N,137-03.6400E,180,33.5035
153,2012/8/27,4:30:00,34-01.9600N,137-03.6300E,181,33.5179
154,2012/8/27,4:31:00,34-01.7700N,137-03.6200E,182,33.5198
155,2012/8/27,4:32:00,34-01.5800N,137-03.6100E,181,33.5133
156,2012/8/27,4:33:00,34-01.3900N,137-03.6100E,181,33.5112
157,2012/8/27,4:34:00,34-01.2000N,137-03.6000E,181,33.524
158,2012/8/27,4:35:00,34-01.0100N,137-03.6000E,180,33.5516
159,2012/8/27,4:36:00,34-00.8200N,137-03.5900E,184,33.5595
160,2012/8/27,4:37:00,34-00.6300N,137-03.5700E,186,33.5687
161,2012/8/27,4:38:00,34-00.4400N,137-03.5300E,191,33.5873
162,2012/8/27,4:39:00,34-00.2500N,137-03.4600E,198,33.5944
163,2012/8/27,4:40:00,34-00.0600N,137-03.3700E,203,33.5954
164,2012/8/27,4:41:00,33-59.8800N,137-03.2700E,206,33.5955
165,2012/8/27,4:42:00,33-59.7000N,137-03.1700E,205,33.5933
166,2012/8/27,4:43:00,33-59.5200N,137-03.0600E,204,33.6057
167,2012/8/27,4:44:00,33-59.3300N,137-02.9600E,205,33.6157
168,2012/8/27,4:45:00,33-59.1600N,137-02.8600E,206,33.6144
169,2012/8/27,4:46:00,33-58.9700N,137-02.7500E,205,33.6134
170,2012/8/27,4:47:00,33-58.8000N,137-02.6600E,205,33.6131
171,2012/8/27,4:48:00,33-58.6200N,137-02.5600E,205,33.6135
172,2012/8/27,4:49:00,33-58.4400N,137-02.4600E,203,33.6171
173,2012/8/27,4:50:00,33-58.2600N,137-02.3700E,203,33.6278
174,2012/8/27,4:51:00,33-58.0800N,137-02.2800E,201,33.6413
175,2012/8/27,4:52:00,33-57.9100N,137-02.2100E,200,33.6625
176,2012/8/27,4:53:00,33-57.7300N,137-02.1300E,200,33.6717
177,2012/8/27,4:54:00,33-57.5500N,137-02.0500E,200,33.6739
178,2012/8/27,4:55:00,33-57.3800N,137-01.9700E,201,33.674
179,2012/8/27,4:56:00,33-57.2100N,137-01.8900E,200,33.6764
180,2012/8/27,4:57:00,33-57.0400N,137-01.8200E,200,33.6148
181,2012/8/27,4:58:00,33-56.8600N,137-01.7400E,200,33.5568
182,2012/8/27,4:59:00,33-56.7000N,137-01.6600E,201,33.5463
183,2012/8/27,5:00:00,33-56.5200N,137-01.5800E,200,33.5285
184,2012/8/27,5:01:00,33-56.3500N,137-01.5000E,200,33.5034
185,2012/8/27,5:02:00,33-56.1700N,137-01.4200E,201,33.4959
186,2012/8/27,5:03:00,33-55.9900N,137-01.3400E,201,33.4846
187,2012/8/27,5:04:00,33-55.8200N,137-01.2600E,201,33.4703
188,2012/8/27,5:05:00,33-55.6400N,137-01.1700E,201,33.4836
189,2012/8/27,5:06:00,33-55.4600N,137-01.0900E,200,33.4875
190,2012/8/27,5:07:00,33-55.2700N,137-01.0000E,201,33.4421
191,2012/8/27,5:08:00,33-55.0900N,137-00.9200E,200,33.4866
192,2012/8/27,5:09:00,33-54.9100N,137-00.8400E,201,33.4962
193,2012/8/27,5:10:00,33-54.7400N,137-00.7600E,200,33.4958
194,2012/8/27,5:11:00,33-54.5600N,137-00.6800E,200,33.4977
195,2012/8/27,5:12:00,33-54.3800N,137-00.6000E,201,33.5036
196,2012/8/27,5:13:00,33-54.2000N,137-00.5100E,201,33.514
197,2012/8/27,5:14:00,33-54.0100N,137-00.4300E,201,33.5149
198,2012/8/27,5:15:00,33-53.8300N,137-00.3400E,201,33.5078
199,2012/8/27,5:16:00,33-53.6500N,137-00.2500E,201,33.5036
200,2012/8/27,5:17:00,33-53.4600N,137-00.1700E,202,33.5067
201,2012/8/27,5:18:00,33-53.2600N,137-00.0700E,201,33.5197
202,2012/8/27,5:19:00,33-53.0900N,136-59.9900E,201,33.497
203,2012/8/27,5:20:00,33-52.9100N,136-59.9100E,201,33.4618
204,2012/8/27,5:21:00,33-52.7300N,136-59.8200E,201,33.4469
205,2012/8/27,5:22:00,33-52.5400N,136-59.7300E,202,33.4486
206,2012/8/27,5:23:00,33-52.3600N,136-59.6400E,202,33.4439
207,2012/8/27,5:24:00,33-52.1800N,136-59.5600E,201,---
208,2012/8/27,5:25:00,33-52.0000N,136-59.4800E,201,33.417
209,2012/8/27,5:26:00,33-51.8200N,136-59.3900E,202,33.4289
210,2012/8/27,5:27:00,33-51.6500N,136-59.3000E,202,33.4015
211,2012/8/27,5:28:00,33-51.4700N,136-59.2100E,203,33.4052
212,2012/8/27,5:29:00,33-51.2800N,136-59.1200E,202,33.4232
213,2012/8/27,5:30:00,33-51.0900N,136-59.0300E,201,33.4367
214,2012/8/27,5:31:00,33-50.9300N,136-58.9500E,201,33.4416
215,2012/8/27,5:32:00,33-50.7600N,136-58.8800E,201,33.4341
216,2012/8/27,5:33:00,33-50.5800N,136-58.8000E,201,33.4846
217,2012/8/27,5:34:00,33-50.4100N,136-58.7100E,203,33.5067
218,2012/8/27,5:35:00,33-50.2300N,136-58.6100E,204,33.5231
219,2012/8/27,5:36:00,33-50.0600N,136-58.5100E,205,33.4974
220,2012/8/27,5:37:00,33-49.8800N,136-58.4200E,203,33.4518
221,2012/8/27,5:38:00,33-49.7000N,136-58.3200E,203,33.3963
222,2012/8/27,5:39:00,33-49.5200N,136-58.2300E,202,33.3682
223,2012/8/27,5:40:00,33-49.3400N,136-58.1400E,202,33.3579
224,2012/8/27,5:41:00,33-49.1600N,136-58.0500E,203,33.3575
225,2012/8/27,5:42:00,33-48.9700N,136-57.9500E,203,33.3989
226,2012/8/27,5:43:00,33-48.7900N,136-57.8600E,202,33.4527
227,2012/8/27,5:44:00,33-48.6100N,136-57.7700E,201,33.4878
228,2012/8/27,5:45:00,33-48.4300N,136-57.6900E,200,33.522
229,2012/8/27,5:46:00,33-48.2600N,136-57.6100E,199,33.5603
230,2012/8/27,5:47:00,33-48.0700N,136-57.5400E,198,33.5924
231,2012/8/27,5:48:00,33-47.8900N,136-57.4600E,199,33.601
232,2012/8/27,5:49:00,33-47.7100N,136-57.3900E,199,33.6053
233,2012/8/27,5:50:00,33-47.5300N,136-57.3100E,198,33.6091
234,2012/8/27,5:51:00,33-47.3500N,136-57.2400E,197,33.6006
235,2012/8/27,5:52:00,33-47.1700N,136-57.1800E,197,33.6092
236,2012/8/27,5:53:00,33-46.9900N,136-57.1100E,197,33.6222
237,2012/8/27,5:54:00,33-46.8000N,136-57.0400E,196,33.6199
238,2012/8/27,5:55:00,33-46.6200N,136-56.9800E,197,33.6257
239,2012/8/27,5:56:00,33-46.4400N,136-56.9200E,195,33.6427
240,2012/8/27,5:57:00,33-46.2600N,136-56.8600E,195,33.6602
241,2012/8/27,5:58:00,33-46.0800N,136-56.8000E,196,33.6591
242,2012/8/27,5:59:00,33-45.9000N,136-56.7300E,196,33.6545
243,2012/8/27,6:00:00,33-45.7200N,136-56.6700E,195,33.6576
244,2012/8/27,6:01:00,33-45.5400N,136-56.6100E,194,33.6563
245,2012/8/27,6:02:00,33-45.3600N,136-56.5600E,192,33.6577
246,2012/8/27,6:03:00,33-45.1900N,136-56.5100E,193,33.653
247,2012/8/27,6:04:00,33-44.9900N,136-56.4500E,194,33.6491
248,2012/8/27,6:05:00,33-44.8300N,136-56.4000E,194,33.6496
249,2012/8/27,6:06:00,33-44.6400N,136-56.3400E,194,33.6534
250,2012/8/27,6:07:00,33-44.4600N,136-56.2900E,194,33.6533
251,2012/8/27,6:08:00,33-44.2800N,136-56.2300E,193,33.6488
252,2012/8/27,6:09:00,33-44.0900N,136-56.1800E,192,33.6445
253,2012/8/27,6:10:00,33-43.9000N,136-56.1300E,192,33.638
254,2012/8/27,6:11:00,33-43.7200N,136-56.0900E,191,33.6458
255,2012/8/27,6:12:00,33-43.5400N,136-56.0400E,194,33.654
256,2012/8/27,6:13:00,33-43.3600N,136-56.0100E,187,33.6572
257,2012/8/27,6:14:00,33-43.1800N,136-55.9400E,199,33.6569
258,2012/8/27,6:15:00,33-43.0000N,136-55.8700E,199,33.6679
259,2012/8/27,6:16:00,33-42.8200N,136-55.7800E,202,33.6725
260,2012/8/27,6:17:00,33-42.6500N,136-55.7000E,201,33.6626
261,2012/8/27,6:18:00,33-42.4700N,136-55.6200E,201,33.6584
262,2012/8/27,6:19:00,33-42.3000N,136-55.5400E,201,33.6541
263,2012/8/27,6:20:00,33-42.1200N,136-55.4500E,201,33.6467
264,2012/8/27,6:21:00,33-41.9500N,136-55.3800E,199,33.6403
265,2012/8/27,6:22:00,33-41.7700N,136-55.3000E,200,33.6311
266,2012/8/27,6:23:00,33-41.5900N,136-55.2200E,200,33.6298
267,2012/8/27,6:24:00,33-41.4100N,136-55.1400E,199,33.6285
268,2012/8/27,6:25:00,33-41.2400N,136-55.0700E,198,33.6321
269,2012/8/27,6:26:00,33-41.0600N,136-55.0000E,199,33.6356
270,2012/8/27,6:27:00,33-40.8700N,136-54.9200E,199,---
271,2012/8/27,6:28:00,33-40.7000N,136-54.8400E,200,33.6616
272,2012/8/27,6:29:00,33-40.5200N,136-54.7700E,199,33.671
273,2012/8/27,6:30:00,33-40.3500N,136-54.7000E,198,---
274,2012/8/27,6:31:00,33-40.1700N,136-54.6300E,198,33.685
275,2012/8/27,6:32:00,33-40.0000N,136-54.5600E,197,33.6833
276,2012/8/27,6:33:00,33-39.8300N,136-54.5000E,197,33.6876
277,2012/8/27,6:34:00,33-39.6600N,136-54.4300E,198,33.6842
278,2012/8/27,6:35:00,33-39.4900N,136-54.3700E,197,33.646
279,2012/8/27,6:36:00,33-39.3200N,136-54.3000E,197,33.6699
280,2012/8/27,6:37:00,33-39.1500N,136-54.2400E,196,33.6404
281,2012/8/27,6:38:00,33-38.9600N,136-54.1700E,197,33.6303
282,2012/8/27,6:39:00,33-38.8000N,136-54.1100E,197,33.6231
283,2012/8/27,6:40:00,33-38.6300N,136-54.0400E,196,33.6187
284,2012/8/27,6:41:00,33-38.4500N,136-53.9800E,196,33.6003
285,2012/8/27,6:42:00,33-38.2700N,136-53.9200E,195,33.5433
286,2012/8/27,6:43:00,33-38.0900N,136-53.8600E,195,33.5084
287,2012/8/27,6:44:00,33-37.9100N,136-53.8000E,194,33.5168
288,2012/8/27,6:45:00,33-37.7400N,136-53.7400E,197,33.5297
289,2012/8/27,6:46:00,33-37.5700N,136-53.6700E,198,33.53
290,2012/8/27,6:47:00,33-37.4000N,136-53.6000E,196,33.5174
291,2012/8/27,6:48:00,33-37.2400N,136-53.5500E,195,33.5149
292,2012/8/27,6:49:00,33-37.0600N,136-53.4900E,196,33.5112
293,2012/8/27,6:50:00,33-36.9000N,136-53.4300E,195,33.5053
294,2012/8/27,6:51:00,33-36.7100N,136-53.3700E,195,33.5105
295,2012/8/27,6:52:00,33-36.5400N,136-53.3100E,196,33.5093
296,2012/8/27,6:53:00,33-36.3700N,136-53.2500E,196,33.5092
297,2012/8/27,6:54:00,33-36.1900N,136-53.1900E,194,33.5341
298,2012/8/27,6:55:00,33-36.0100N,136-53.1400E,193,33.5606
299,2012/8/27,6:56:00,33-35.8300N,136-53.0900E,193,33.5674
300,2012/8/27,6:57:00,33-35.6500N,136-53.0300E,194,33.5674
301,2012/8/27,6:58:00,33-35.4800N,136-52.9800E,194,33.5712
302,2012/8/27,6:59:00,33-35.3100N,136-52.9300E,193,33.5808
303,2012/8/27,7:00:00,33-35.1300N,136-52.8800E,193,33.5846
304,2012/8/27,7:01:00,33-34.9500N,136-52.8300E,192,33.5801
305,2012/8/27,7:02:00,33-34.7800N,136-52.7800E,192,33.5821
306,2012/8/27,7:03:00,33-34.6000N,136-52.7400E,191,33.5658
307,2012/8/27,7:04:00,33-34.4300N,136-52.7000E,191,33.5727
308,2012/8/27,7:05:00,33-34.2600N,136-52.6500E,191,33.5629
309,2012/8/27,7:06:00,33-34.0800N,136-52.6100E,190,33.5504
310,2012/8/27,7:07:00,33-33.9100N,136-52.5700E,192,33.5583
311,2012/8/27,7:08:00,33-33.7400N,136-52.5100E,195,33.5513
312,2012/8/27,7:09:00,33-33.5800N,136-52.4600E,195,33.551
313,2012/8/27,7:10:00,33-33.4200N,136-52.4100E,194,33.5524
314,2012/8/27,7:11:00,33-33.2500N,136-52.3600E,196,---
315,2012/8/27,7:12:00,33-33.1000N,136-52.3000E,196,33.6059
316,2012/8/27,7:13:00,33-32.9400N,136-52.2400E,196,33.6212
317,2012/8/27,7:14:00,33-32.7700N,136-52.1800E,197,33.619
318,2012/8/27,7:15:00,33-32.6000N,136-52.1200E,197,33.5951
319,2012/8/27,7:16:00,33-32.4400N,136-52.0600E,196,---
320,2012/8/27,7:17:00,33-32.2800N,136-52.0100E,196,33.56
321,2012/8/27,7:18:00,33-32.1200N,136-51.9500E,195,33.5537
322,2012/8/27,7:19:00,33-31.9500N,136-51.9000E,193,33.5541
323,2012/8/27,7:20:00,33-31.7900N,136-51.8500E,195,---
324,2012/8/27,7:21:00,33-31.6300N,136-51.7900E,196,33.5065
325,2012/8/27,7:22:00,33-31.4600N,136-51.7300E,198,33.5241
326,2012/8/27,7:23:00,33-31.3000N,136-51.6700E,199,33.5239
327,2012/8/27,7:24:00,33-31.1300N,136-51.6000E,199,33.4925
328,2012/8/27,7:25:00,33-30.9700N,136-51.5300E,198,33.4854
329,2012/8/27,7:26:00,33-30.8100N,136-51.4700E,197,33.479
330,2012/8/27,7:27:00,33-30.6400N,136-51.4100E,197,33.4843
331,2012/8/27,7:28:00,33-30.4900N,136-51.3400E,199,33.5241
332,2012/8/27,7:29:00,33-30.3300N,136-51.2800E,199,33.5475
333,2012/8/27,7:30:00,33-30.1800N,136-51.2100E,199,33.5679
334,2012/8/27,7:31:00,33-30.0200N,136-51.1400E,198,33.586
335,2012/8/27,7:32:00,33-29.8500N,136-51.0700E,200,---
336,2012/8/27,7:33:00,33-29.7000N,136-51.0000E,200,33.6078
337,2012/8/27,7:34:00,33-29.5400N,136-50.9200E,201,33.5913
338,2012/8/27,7:35:00,33-29.3800N,136-50.8500E,200,33.5561
339,2012/8/27,7:36:00,33-29.2300N,136-50.7900E,200,33.5861
340,2012/8/27,7:37:00,33-29.0700N,136-50.7100E,201,33.7655
341,2012/8/27,7:38:00,33-28.9100N,136-50.6400E,201,33.792
342,2012/8/27,7:39:00,33-28.7600N,136-50.5700E,200,33.7844
343,2012/8/27,7:40:00,33-28.6100N,136-50.5100E,198,33.8195
344,2012/8/27,7:41:00,33-28.4600N,136-50.4500E,198,33.8123
345,2012/8/27,7:42:00,33-28.3100N,136-50.3900E,199,33.8064
346,2012/8/27,7:43:00,33-28.1600N,136-50.3300E,199,33.7864
347,2012/8/27,7:44:00,33-28.0100N,136-50.2600E,200,33.7812
348,2012/8/27,7:45:00,33-27.8700N,136-50.2000E,198,33.7797
349,2012/8/27,7:46:00,33-27.7200N,136-50.1500E,196,33.7741
350,2012/8/27,7:47:00,33-27.5800N,136-50.1000E,195,33.7701
351,2012/8/27,7:48:00,33-27.4300N,136-50.0500E,196,33.7676
352,2012/8/27,7:49:00,33-27.2900N,136-50.0000E,197,33.7616
353,2012/8/27,7:50:00,33-27.1400N,136-49.9500E,196,33.7607
354,2012/8/27,7:51:00,33-27.0000N,136-49.8900E,196,33.7524
355,2012/8/27,7:52:00,33-26.8500N,136-49.8400E,195,33.7335
356,2012/8/27,7:53:00,33-26.6900N,136-49.7900E,196,33.7228
357,2012/8/27,7:54:00,33-26.5400N,136-49.7300E,197,33.7152
358,2012/8/27,7:55:00,33-26.3900N,136-49.6800E,195,33.712
359,2012/8/27,7:56:00,33-26.2300N,136-49.6300E,195,33.7065
360,2012/8/27,7:57:00,33-26.0800N,136-49.5700E,196,33.7018
361,2012/8/27,7:58:00,33-25.9300N,136-49.5200E,196,33.7088
362,2012/8/27,7:59:00,33-25.7600N,136-49.4600E,197,33.7086
363,2012/8/27,8:00:00,33-25.6100N,136-49.3900E,201,33.7063
364,2012/8/27,8:01:00,33-25.4700N,136-49.3200E,204,33.6995
365,2012/8/27,8:02:00,33-25.3300N,136-49.2300E,208,33.7036
366,2012/8/27,8:03:00,33-25.2100N,136-49.1600E,206,33.7045
367,2012/8/27,8:04:00,33-25.0700N,136-49.0900E,202,33.7017
368,2012/8/27,8:05:00,33-24.9300N,136-49.0200E,202,33.6979
369,2012/8/27,8:06:00,33-24.8000N,136-48.9600E,201,33.7013
370,2012/8/27,8:07:00,33-24.6600N,136-48.8900E,201,33.7087
371,2012/8/27,8:08:00,33-24.5200N,136-48.8200E,201,33.7188
372,2012/8/27,8:09:00,33-24.3800N,136-48.7500E,202,33.7372
373,2012/8/27,8:10:00,33-24.2400N,136-48.6800E,201,33.7505
374,2012/8/27,8:11:00,33-24.1000N,136-48.6200E,201,33.7656
375,2012/8/27,8:12:00,33-23.9600N,136-48.5500E,201,33.7801
376,2012/8/27,8:13:00,33-23.8200N,136-48.4900E,202,33.7984
377,2012/8/27,8:14:00,33-23.6800N,136-48.4200E,202,33.8228
378,2012/8/27,8:15:00,33-23.5400N,136-48.3500E,201,33.8457
379,2012/8/27,8:16:00,33-23.4000N,136-48.2900E,200,33.8675
380,2012/8/27,8:17:00,33-23.2700N,136-48.2200E,201,33.8801
381,2012/8/27,8:18:00,33-23.1200N,136-48.1500E,203,33.8963
382,2012/8/27,8:19:00,33-22.9900N,136-48.0800E,204,33.9081
383,2012/8/27,8:20:00,33-22.8500N,136-48.0100E,202,33.924
384,2012/8/27,8:21:00,33-22.7100N,136-47.9400E,201,33.9258
385,2012/8/27,8:22:00,33-22.5600N,136-47.8700E,203,33.9335
386,2012/8/27,8:23:00,33-22.4300N,136-47.8000E,203,33.9359
387,2012/8/27,8:24:00,33-22.2900N,136-47.7300E,202,33.9404
388,2012/8/27,8:25:00,33-22.1600N,136-47.6700E,201,33.9452
389,2012/8/27,8:26:00,33-22.0300N,136-47.6000E,201,33.945
390,2012/8/27,8:27:00,33-21.9000N,136-47.5400E,204,33.9412
391,2012/8/27,8:28:00,33-21.7600N,136-47.4700E,203,33.9314
392,2012/8/27,8:29:00,33-21.6400N,136-47.4000E,204,33.9212
393,2012/8/27,8:30:00,33-21.5100N,136-47.3300E,202,33.9104
394,2012/8/27,8:31:00,33-21.3800N,136-47.2600E,203,33.8979
395,2012/8/27,8:32:00,33-21.2500N,136-47.2000E,203,33.8877
396,2012/8/27,8:33:00,33-21.1200N,136-47.1300E,203,33.8771
397,2012/8/27,8:34:00,33-20.9800N,136-47.0600E,204,33.8849
398,2012/8/27,8:35:00,33-20.8400N,136-46.9800E,204,33.8817
399,2012/8/27,8:36:00,33-20.7000N,136-46.9100E,204,33.8788
400,2012/8/27,8:37:00,33-20.5700N,136-46.8300E,204,33.8797
401,2012/8/27,8:38:00,33-20.4200N,136-46.7500E,204,33.8767
402,2012/8/27,8:39:00,33-20.2900N,136-46.6700E,206,33.8777
403,2012/8/27,8:40:00,33-20.1400N,136-46.5900E,205,33.8789
404,2012/8/27,8:41:00,33-20.0000N,136-46.5100E,206,33.8796
405,2012/8/27,8:42:00,33-19.8600N,136-46.4300E,205,33.8768
406,2012/8/27,8:43:00,33-19.7200N,136-46.3500E,205,33.8618
407,2012/8/27,8:44:00,33-19.5800N,136-46.2700E,207,33.8832
408,2012/8/27,8:45:00,33-19.4500N,136-46.1900E,206,33.8896
409,2012/8/27,8:46:00,33-19.3100N,136-46.1100E,205,33.8884
410,2012/8/27,8:47:00,33-19.1700N,136-46.0300E,204,33.8256
411,2012/8/27,8:48:00,33-19.0300N,136-45.9600E,204,33.8654
412,2012/8/27,8:49:00,33-18.9000N,136-45.8800E,205,33.8618
413,2012/8/27,8:50:00,33-18.7700N,136-45.8100E,205,33.8636
414,2012/8/27,8:51:00,33-18.6400N,136-45.7300E,205,33.8595
415,2012/8/27,8:52:00,33-18.5100N,136-45.6600E,202,33.8512
416,2012/8/27,8:53:00,33-18.3700N,136-45.6000E,202,33.8414
417,2012/8/27,8:54:00,33-18.2400N,136-45.5300E,204,33.8344
418,2012/8/27,8:55:00,33-18.1000N,136-45.4500E,205,33.8171
419,2012/8/27,8:56:00,33-17.9700N,136-45.3700E,204,33.8156
420,2012/8/27,8:57:00,33-17.8400N,136-45.3000E,205,33.8256
421,2012/8/27,8:58:00,33-17.7000N,136-45.2300E,204,33.8256